CDT,Max TemperatureF,Mean TemperatureF,Min TemperatureF,Max Dew PointF,MeanDew PointF,Min DewpointF,Max Humidity, Mean Humidity, Min Humidity, Max Sea Level PressureIn, Mean Sea Level PressureIn, Min Sea Level PressureIn, Max VisibilityMiles, Mean VisibilityMiles, Min VisibilityMiles, Max Wind SpeedMPH, Mean Wind SpeedMPH, Max Gust SpeedMPH,PrecipitationIn, CloudCover, Events, WindDirDegrees
2012-10-1,64,55,46,46,44,41,93,66,45,29.87,29.81,29.77,10,10,10,14,6,18,0.00,0,,23
2012-10-2,66,56,46,54,48,45,100,76,49,29.89,29.82,29.77,10,10,3,16,7,23,0.00,4,Rain,354
2012-10-3,75,65,55,57,53,43,100,77,31,30.06,29.97,29.88,10,8,2,14,3,16,0.03,6,Rain,198
2012-10-4,80,66,50,55,52,45,100,70,37,30.20,30.10,30.06,10,10,10,21,9,26,0.00,2,Thunderstorm,223
2012-10-5,50,44,35,45,40,34,100,88,76,30.24,30.18,30.13,10,10,4,15,8,,0.55,6,Rain-Thunderstorm,329
2012-10-6,48,40,33,34,32,30,93,75,54,30.23,30.20,30.16,10,10,10,14,8,18,0.00,0,,298
2012-10-7,51,42,32,36,31,27,93,72,40,30.25,30.20,30.16,10,10,10,13,4,17,0.00,3,,279
2012-10-8,59,44,30,36,32,28,93,68,36,30.20,30.14,30.06,10,10,10,15,4,21,0.00,0,,185
2012-10-9,64,52,39,45,40,36,87,67,42,30.06,29.98,29.90,10,10,10,20,11,26,0.00,1,,189
2012-10-10,55,45,35,43,32,27,100,69,33,30.25,30.17,30.01,10,10,7,18,9,22,0.02,1,Rain,284
2012-10-11,64,50,35,41,35,28,81,61,34,30.23,30.19,30.11,10,10,5,18,9,21,0.00,0,,187
2012-10-12,62,52,41,43,40,36,81,67,48,30.38,30.29,30.19,10,9,1,17,7,23,0.00,1,,71
2012-10-13,73,62,50,63,56,43,100,84,69,30.23,30.01,29.80,10,8,2,23,12,31,0.18,3,Rain-Thunderstorm,170
2012-10-14,71,60,48,63,56,45,100,84,56,29.90,29.73,29.60,10,10,5,30,17,40,0.36,4,Rain,219
2012-10-15,64,53,42,46,44,43,100,78,45,30.00,29.95,29.90,10,10,7,13,6,16,0.00,0,,279
2012-10-16,73,58,44,54,48,41,87,67,50,29.96,29.77,29.61,10,10,10,20,10,24,0.00,0,,160
2012-10-17,64,58,51,59,53,48,100,81,63,29.64,29.52,29.35,10,10,4,24,14,41,0.24,4,Rain-Thunderstorm,194
2012-10-18,57,50,44,48,37,34,93,64,41,29.59,29.54,29.51,10,10,10,25,14,34,0.00,3,Rain,234
2012-10-19,50,46,42,46,43,43,100,89,76,29.74,29.60,29.48,10,9,3,18,14,24,0.02,8,Rain,250
2012-10-20,55,50,44,45,44,43,100,85,63,29.93,29.86,29.74,10,10,7,13,8,17,0.00,6,,236
2012-10-21,73,58,44,61,50,43,100,76,50,29.97,29.94,29.90,10,10,10,13,9,16,0.00,1,,139
2012-10-22,68,64,59,63,58,52,100,80,64,29.99,29.93,29.90,10,9,2,18,12,32,0.95,3,Rain-Thunderstorm,170
2012-10-23,69,64,60,63,58,54,88,79,73,29.97,29.92,29.88,10,10,10,18,10,24,0.01,2,Rain-Thunderstorm,173
2012-10-24,77,68,59,64,59,54,88,75,65,29.98,29.93,29.88,10,10,10,18,11,24,0.00,1,,176
2012-10-25,77,60,42,63,55,39,100,78,57,30.12,29.88,29.76,10,10,5,26,16,33,0.00,3,Rain-Thunderstorm,200
2012-10-26,48,42,35,39,33,28,87,74,57,30.33,30.27,30.13,10,10,10,20,15,29,0.00,4,,343
2012-10-27,48,39,30,36,30,28,93,74,53,30.32,30.26,30.21,10,10,7,16,11,20,0.01,0,,352
2012-10-28,48,39,30,36,31,28,93,79,58,30.26,30.23,30.21,10,10,10,15,8,18,0.00,2,,355
2012-10-29,51,40,30,37,29,25,93,71,37,30.29,30.22,30.08,10,10,10,18,9,23,0.00,0,,343
2012-10-30,53,44,35,27,22,18,70,48,24,30.08,29.92,29.82,10,10,10,24,14,31,0.00,0,,321
2012-10-31,50,40,30,28,23,18,80,58,30,29.94,29.90,29.86,10,10,10,17,9,24,0.00,0,,292